Regional Weather Roundup
Issued by NWS

Home | Current Version | Previous Version | Text Only | Print | Product List | Glossary Off
Versions: 1 2 3 4 5 6 7 8 9 10 11 12 13 14 15 16 17 18 19 20 21 22 23 24 25 26 27 28 29 30 31 32 33 34 35 36 37 38 39 40 41 42 43 44 45 46 47 48 49 50

000
ASUS43 KLSX 180259
RWRMO

WEATHER SUMMARY FOR MISSOURI
NATIONAL WEATHER SERVICE SPRINGFIELD MO
1000 PM CDT FRI APR 17 2015

NOTE: "FAIR" INDICATES FEW OR NO CLOUDS BELOW 12,000 FEET WITH NO
       SIGNIFICANT WEATHER AND/OR OBSTRUCTIONS TO VISIBILITY.
       CURRENT SKY AND/OR WEATHER CONDITIONS ARE NOT AVAILABLE FOR
       CHILLICOTHE AND FARMINGTON.

MOZ001>031-035>038-043-044-053-054-180400-
...NORTHERN AND WESTERN MISSOURI...

CITY           SKY/WX    TMP DP  RH WIND       PRES   REMARKS
KANSAS CTY INT CLOUDY    63  59  87 NE7       29.99R
KANSAS C DTWN  CLOUDY    69  60  73 CALM      29.97R
LEE`S SUMMIT   CLOUDY    71  57  61 CALM      29.98R
ST JOSEPH      CLOUDY    66  57  72 CALM      29.98F
CHILLICOTHE      N/A     66  60  81 CALM      30.00R
KIRKSVILLE     PTCLDY    69  55  60 SE6       30.01S

$$
MOZ066>068-077>081-088>096-101>105-180400-
...SOUTHWEST MISSOURI...

CITY           SKY/WX    TMP DP  RH WIND       PRES   REMARKS
SPRINGFIELD    MOCLDY    67  58  72 S6        30.00R
JOPLIN         CLOUDY    71  60  68 SE7       29.98R

$$
MOZ032>034-039>042-045>050-055>058-069>072-180400-
...CENTRAL MISSOURI...

CITY           SKY/WX    TMP DP  RH WIND       PRES   REMARKS
COLUMBIA       PTCLDY    68  56  65 E9        29.99S
JEFFERSON CITY MOCLDY    74  55  51 E9        29.98R
ROLLA          CLOUDY    68  55  63 E7        29.98R
SEDALIA        MOCLDY    70  55  59 E7        29.99R
OSAGE BEACH    PTCLDY    70  52  52 SE3       29.99R

$$
MOZ051-052-059>065-180400-
...EAST CENTRAL MISSOURI...

CITY           SKY/WX    TMP DP  RH WIND       PRES   REMARKS
ST LOUIS INTL  PTCLDY    69  56  62 E5        30.02R
SPIRIT OF STL  PTCLDY    64  57  78 CALM      30.01R
ST CHARLES     PTCLDY    64  55  72 E6        30.01R

$$
MOZ072>076-082>087-097>100-106>115-180400-
...SOUTH CENTRAL AND SOUTHEAST MISSOURI...

CITY           SKY/WX    TMP DP  RH WIND       PRES   REMARKS
CAPE GIRARDEAU CLEAR     62  61  96 CALM      30.03R
FARMINGTON     CLEAR     64  57  77 S3        30.07R
POPLAR BLUFF   CLEAR     63  60  90 CALM      30.01R
WEST PLAINS    MOCLDY    64  60  87 S5        30.03R

$$



USA.gov is the U.S. government's official web portal to all federal, state and local government web resources and services.